sat.trackr.live / text

‹ back to catalog

UNKNOWN

NORAD 82432

UNKNOWN UNKNOWN UNKNOWN

§ Identity

Operator
Country
Launch date
Launch site
Launch vehicle
Mass (kg)
RCS (m²)

External: N2YO · Heavens-Above

§ Orbital elements

Epoch: 2026-09-18T11:17:40.269408Z

Period
98.67 min
Inclination
74.0065°
Eccentricity
0.0056500
Mean motion
14.59463781 rev/d
Perigee alt
654.9 km
Apogee alt
734.9 km
Semi-major
7,073.0 km
B*
1.8071e-4
RAAN
166.5984°
Arg perigee
261.8318°
Mean anomaly
97.6436°
Rev number
52,370

§ Raw data

UNKNOWN1 82432U          26261.47060497  .00000844  00000+0  18071-3 0  99982 82432  74.0065 166.5984 0056500 261.8318  97.6436 14.59463781523707

JSON: /api/v1/satellites/82432 · /tle

For live sub-satellite position, see the globe view (requires WebGL).

§ Visibility from observer

Set your observer location to see the next 7 days of passes ≥ 10°. The values pass through the URL so the page stays shareable.

No JS? Fill the form by hand. The geolocation button needs JavaScript.